Haines, AK

7:00 PM AKST on February 20, 2018 (GMT -0900)
Haines

Weather History for PAHN - November, 2014

Change the Weather History Date:

Monday, November 24, 2014

  Actual Average Record
Temperature  
Mean Temperature 37 °F -  
Max Temperature 41 °F 33 °F 50 °F (2005)
Min Temperature 33 °F 25 °F 5 °F (2006)
Degree Days  
Heating Degree Days 28    
Moisture  
Dew Point 35 °F    
Average Humidity 94    
Maximum Humidity 100    
Minimum Humidity 79    
Precipitation  
Precipitation 0.15 in - - ()
Sea Level Pressure  
Sea Level Pressure 29.81 in    
Wind  
Wind Speed 7 mph (NW)    
Max Wind Speed 13 mph    
Max Gust Speed -    
Visibility 9 miles    
Events Rain    
Averages and records for this station are not official NWS values.
T = Trace of Precipitation, MM = Missing Value Source: NWS Daily Summary

Daily Weather History Graph

Daily Weather History Graph

Search for Another Location

Airport or City:

Trip Planner

Search our weather history database for the weather conditions in past years. The results will help you decide how hot, cold, wet, or windy it might be!

Date:

Astronomy

Nov. 24, 2014 Rise Set
Actual Time 8:16 AM AKST 3:20 PM AKST
Civil Twilight 7:26 AM AKST 4:10 PM AKST
Nautical Twilight 6:34 AM AKST 5:02 PM AKST
Astronomical Twilight 5:45 AM AKST 5:51 PM AKST
Moon 10:12 AM AKST (11/24) 5:55 PM AKST (11/24)
Length of Visible Light 8h 43m
Length of Day
7h 03m
Waxing Crescent, 7% of the Moon is Illuminated
Nov 24
Waxing Crescent
Nov 29
First Quarter
Dec 6
Full
Dec 14
Last Quarter
Dec 21
New

Hourly Weather History & Observations

Time (AKST) Temp. Windchill Dew Point Humidity Pressure Visibility Wind Dir Wind Speed Gust Speed Precip Events Conditions
12:44 AM 41.0 °F 39.0 °F 35.1 °F 79% 29.76 in 10.0 mi ESE 3.5 mph - N/A   Overcast
12:54 AM 39.9 °F - 35.1 °F 83% 29.77 in 10.0 mi Calm Calm - N/A   Overcast
1:29 AM 36.0 °F 30.3 °F 34.0 °F 93% 29.76 in 10.0 mi WNW 6.9 mph - N/A   Overcast
1:54 AM 35.1 °F 27.9 °F 33.1 °F 92% 29.76 in 9.0 mi WNW 9.2 mph - 0.00 in Rain Light Rain
2:54 AM 35.1 °F 27.9 °F 34.0 °F 96% 29.75 in 10.0 mi WNW 9.2 mph - 0.01 in Rain Light Rain
3:14 AM 36.0 °F 28.5 °F 34.0 °F 93% 29.73 in 10.0 mi WNW 10.4 mph - 0.01 in Rain Light Rain
3:23 AM 36.0 °F 28.0 °F 34.0 °F 93% 29.73 in 10.0 mi WNW 11.5 mph - 0.01 in Rain Light Rain
3:54 AM 35.1 °F 27.4 °F 34.0 °F 96% 29.73 in 10.0 mi WNW 10.4 mph - 0.01 in   Overcast
4:42 AM 36.0 °F 27.5 °F 34.0 °F 93% 29.70 in 10.0 mi WNW 12.7 mph - 0.00 in   Overcast
4:54 AM 36.0 °F 28.0 °F 34.0 °F 93% 29.70 in 10.0 mi WNW 11.5 mph - 0.00 in   Overcast
5:54 AM 37.0 °F 28.9 °F 35.1 °F 93% 29.70 in 10.0 mi NW 12.7 mph - 0.00 in Rain Light Rain
6:54 AM 37.0 °F 29.8 °F 35.1 °F 93% 29.70 in 10.0 mi NW 10.4 mph - 0.00 in Rain Light Rain
7:54 AM 36.0 °F 29.0 °F 35.1 °F 97% 29.70 in 10.0 mi WNW 9.2 mph - 0.02 in Rain Light Rain
8:54 AM 36.0 °F 28.5 °F 35.1 °F 97% 29.70 in 10.0 mi WNW 10.4 mph - 0.01 in Rain Light Rain
9:54 AM 36.0 °F 28.0 °F 34.0 °F 93% 29.72 in 8.0 mi NW 11.5 mph - 0.02 in Rain Light Rain
10:54 AM 35.1 °F - 34.0 °F 96% 29.75 in 7.0 mi North - - 0.01 in Rain Light Rain
11:54 AM 36.0 °F 29.0 °F 34.0 °F 93% 29.76 in 10.0 mi WNW 9.2 mph - 0.01 in   Overcast
12:54 PM 36.0 °F 29.6 °F 34.0 °F 93% 29.78 in 10.0 mi WNW 8.1 mph - 0.01 in   Overcast
1:25 PM 36.0 °F 31.1 °F 35.1 °F 97% 29.78 in 10.0 mi WNW 5.8 mph - 0.00 in Rain Light Rain
1:54 PM 36.0 °F 33.3 °F 35.1 °F 97% 29.79 in 10.0 mi West 3.5 mph - 0.00 in   Overcast
2:04 PM 36.0 °F - 35.1 °F 97% 29.79 in 10.0 mi Calm Calm - N/A   Overcast
2:23 PM 36.0 °F 33.3 °F 34.0 °F 93% 29.79 in 10.0 mi ESE 3.5 mph - N/A   Overcast
2:36 PM 36.0 °F 33.3 °F 35.1 °F 97% 29.80 in 10.0 mi ESE 3.5 mph - N/A   Overcast
2:47 PM 36.0 °F 33.3 °F 35.1 °F 97% 29.80 in 10.0 mi ESE 3.5 mph - N/A   Overcast
2:54 PM 36.0 °F 33.3 °F 35.1 °F 97% 29.82 in 10.0 mi East 3.5 mph - 0.00 in   Overcast
3:54 PM 37.0 °F 32.4 °F 36.0 °F 96% 29.83 in 8.0 mi East 5.8 mph - 0.00 in   Overcast
4:08 PM 37.0 °F 32.4 °F 36.0 °F 96% 29.83 in 8.0 mi ENE 5.8 mph - N/A   Overcast
4:23 PM 37.9 °F 33.5 °F 36.0 °F 93% 29.83 in 6.0 mi Variable 5.8 mph - 0.00 in Rain Light Rain
4:34 PM 37.9 °F 34.4 °F 36.0 °F 93% 29.83 in 6.0 mi Variable 4.6 mph - 0.00 in Rain Light Rain
4:54 PM 37.9 °F 33.5 °F 35.1 °F 89% 29.86 in 7.0 mi ENE 5.8 mph - 0.01 in Rain Light Rain
5:10 PM 37.9 °F 33.5 °F 35.1 °F 89% 29.85 in 10.0 mi ENE 5.8 mph - 0.00 in   Overcast
5:54 PM 37.9 °F 32.7 °F 36.0 °F 93% 29.88 in 10.0 mi East 6.9 mph - 0.02 in Rain Light Rain
6:54 PM 37.0 °F 31.6 °F 35.1 °F 93% 29.90 in 5.0 mi ENE 6.9 mph - 0.02 in Rain Light Rain
7:24 PM 37.9 °F 32.1 °F 35.1 °F 89% 29.89 in 10.0 mi ENE 8.1 mph - 0.00 in   Overcast
7:54 PM 37.9 °F 34.4 °F 36.0 °F 93% 29.91 in 10.0 mi East 4.6 mph - 0.00 in   Overcast
8:54 PM 36.0 °F 29.0 °F 35.1 °F 97% 29.94 in 5.0 mi WNW 9.2 mph - 0.00 in   Overcast
9:47 PM 37.0 °F 30.4 °F 35.1 °F 93% 29.95 in 5.0 mi NW 9.2 mph - N/A   Overcast
9:54 PM 37.0 °F 30.4 °F 35.1 °F 93% 29.96 in 6.0 mi WNW 9.2 mph - N/A   Overcast
10:54 PM 34.0 °F 27.2 °F 34.0 °F 100% 29.99 in 10.0 mi WNW 8.1 mph - N/A   Overcast
11:49 PM 33.8 °F 26.4 °F 33.8 °F 100% 30.00 in 10.0 mi WNW 9.2 mph - 0.00 in   Overcast
11:54 PM 34.0 °F 26.0 °F 33.1 °F 96% 30.01 in 10.0 mi WNW 10.4 mph - 0.00 in   Overcast